DW8013 Weather Reports


time (UTC)temp
C
wind
direction
speed
KPH
gust
KPH
rain 1hr
cm
rain 24hr
cm
rain mn
cm
humidity
%
barometer
mb
20260506163015 13 5 0.0 0.0 0.00 0.00 0.00 70 1011.3
20260506161514 13 5 0.0 0.0 0.00 0.00 0.00 70 1011.2
20260506160016 13 5 0.0 0.0 0.00 0.00 0.00 71 1011.3
20260506154512 13 5 0.0 0.0 0.00 0.00 0.00 71 1011.2
20260506153012 13 5 0.0 0.0 0.00 0.00 0.00 71 1011.3
20260506151511 13 5 0.0 0.0 0.00 0.00 0.00 72 1011.1
20260506150010 13 5 0.0 0.0 0.00 0.00 0.00 71 1011.2
20260506144508 13 5 0.0 0.0 0.00 0.00 0.00 70 1011.2
20260506143019 13 5 0.0 0.0 0.00 0.00 0.00 69 1011.1
20260506141510 13 5 0.0 0.0 0.00 0.00 0.00 70 1011.1
20260506140007 13 5 0.0 0.0 0.00 0.00 0.00 69 1011.1
20260506134506 13 5 0.0 0.0 0.00 0.00 0.00 69 1011.1
20260506133006 13 5 0.0 0.0 0.00 0.00 0.00 68 1011.1
20260506131505 13 5 0.0 0.0 0.00 0.00 0.00 68 1011.1
20260506130009 13 5 0.0 0.0 0.00 0.00 0.00 69 1011.0
20260506124503 13 5 0.0 0.0 0.00 0.00 0.00 69 1010.9
20260506123002 13 5 0.0 0.0 0.00 0.00 0.00 69 1010.9
20260506121503 13 5 0.0 0.0 0.00 0.00 0.00 69 1010.8
20260506120002 12 5 0.0 0.0 0.00 0.00 0.00 69 1010.7
20260506114600 12 5 0.0 0.0 0.00 0.00 0.00 68 1010.9
20260506113100 12 5 0.0 0.0 0.00 0.00 0.00 69 1010.8
20260506111557 13 5 0.0 0.0 0.00 0.00 0.00 69 1010.7
20260506110058 13 5 0.0 0.0 0.00 0.00 0.00 68 1010.6
20260506104559 13 5 0.0 0.0 0.00 0.00 0.00 67 1010.7
20260506103105 13 5 0.0 0.0 0.00 0.00 0.00 66 1010.6
20260506101554 13 5 0.0 0.0 0.00 0.00 0.00 69 1010.5
20260506100055 13 5 0.0 0.0 0.00 0.00 0.00 68 1010.5
20260506094558 13 5 0.0 0.0 0.00 0.00 0.00 67 1010.4
20260506093052 13 5 0.0 0.0 0.00 0.00 0.00 65 1010.4
20260506091552 13 5 0.0 0.0 0.00 0.00 0.00 64 1010.3
20260506090055 13 5 0.0 0.0 0.00 0.00 0.00 65 1010.2
20260506084604 13 5 0.0 0.0 0.00 0.00 0.00 65 1010.2
20260506083047 13 5 0.0 0.0 0.00 0.00 0.00 68 1010.1
20260506081545 12 5 0.0 0.0 0.00 0.00 0.00 66 1009.9
20260506073040 12 5 0.0 0.0 0.00 0.00 0.00 69 1009.9
20260506071535 11 5 0.0 0.0 0.00 0.00 0.00 71 1009.9
20260506061541 10 5 0.0 0.0 0.00 0.00 0.00 78 1009.8
20260506044510 9 5 0.0 0.0 0.00 0.00 0.00 81 1009.7
20260506043010 9 5 0.0 0.0 0.00 0.00 0.00 82 1009.5
20260506041505 9 5 0.0 0.0 0.00 0.00 0.00 83 1009.6
20260506040005 9 0.0 0.0 0.00 0.00 0.00 84 1009.7
20260506034504 9 5 0.0 0.0 0.00 0.00 0.00 85 1009.6
20260506033005 8 5 0.0 0.0 0.00 0.00 0.00 86 1009.6
20260506031504 8 5 0.0 0.0 0.00 0.00 0.00 86 1009.7
20260506030004 8 5 0.0 0.0 0.00 0.00 0.00 86 1009.7
20260506024503 8 5 0.0 0.0 0.00 0.00 0.00 86 1009.7
20260506023001 8 5 0.0 0.0 0.00 0.00 0.00 86 1009.6
20260506021607 8 5 0.0 0.0 0.00 0.00 0.00 86 1009.7
20260506020059 9 5 0.0 0.0 0.00 0.00 0.00 87 1009.7
20260506014558 9 5 0.0 0.0 0.00 0.00 0.00 87 1009.8
20260506013106 9 5 0.0 0.0 0.00 0.00 0.00 87 1009.8
20260506011606 9 5 0.0 0.0 0.00 0.00 0.00 86 1009.8
20260506010056 9 5 0.0 0.0 0.00 0.00 0.00 86 1010.0
20260506004554 9 5 0.0 0.0 0.00 0.00 0.00 86 1010.0
20260506003054 9 5 0.0 0.0 0.00 0.00 0.00 86 1010.0
20260506001553 9 5 0.0 0.0 0.00 0.00 0.00 85 1010.0
20260506000052 10 5 0.0 0.0 0.00 0.00 0.00 85 1010.2
20260505234600 10 5 0.0 0.0 0.00 0.00 0.00 86 1010.3
20260505233049 10 5 0.0 0.0 0.00 0.00 0.00 86 1010.3
20260505231603 10 5 0.0 0.0 0.00 0.00 0.00 86 1010.4
20260505230052 10 5 0.0 0.0 0.00 0.00 0.00 85 1010.3
20260505224546 10 5 0.0 0.0 0.00 0.00 0.00 85 1010.3
20260505223047 10 5 0.0 0.0 0.00 0.00 0.00 85 1010.3
20260505221546 10 5 0.0 0.0 0.00 0.00 0.00 84 1010.3
20260505220043 10 5 0.0 0.0 0.00 0.00 0.00 84 1010.3
20260505214602 10 5 0.0 0.0 0.00 0.00 0.00 84 1010.4
20260505213041 10 5 0.0 0.0 0.00 0.00 0.00 83 1010.3
20260505211540 10 5 0.0 0.0 0.00 0.00 0.00 83 1010.3
20260505210042 10 5 0.0 0.0 0.00 0.00 0.00 83 1010.3
20260505204537 10 5 0.0 0.0 0.00 0.00 0.00 82 1010.3
20260505203037 10 5 0.0 0.0 0.00 0.00 0.00 81 1010.3
20260505201536 10 5 0.0 0.0 0.00 0.00 0.00 80 1010.2
20260505200043 10 5 0.0 0.0 0.00 0.00 0.00 79 1010.1
20260505194535 11 5 0.0 0.0 0.00 0.00 0.00 78 1010.0
20260505193037 11 5 0.0 0.0 0.00 0.00 0.00 77 1009.7
20260505191542 11 5 0.0 0.0 0.00 0.00 0.00 78 1009.6
20260505190040 11 5 0.0 0.0 0.00 0.00 0.00 78 1009.8
20260505184534 11 5 0.0 0.0 0.00 0.00 0.00 77 1009.7
20260505183049 11 5 0.0 0.0 0.00 0.00 0.00 76 1009.6
20260505181532 12 5 0.0 0.0 0.00 0.00 0.00 75 1009.6
20260505180035 12 5 0.0 0.0 0.00 0.00 0.00 73 1009.6
20260505174530 12 5 0.0 0.0 0.00 0.00 0.00 73 1009.6
20260505173030 13 5 0.0 0.0 0.00 0.00 0.00 71 1009.6
20260505171529 13 5 0.0 0.0 0.00 0.00 0.00 70 1009.6
20260505170029 13 5 0.0 0.0 0.00 0.00 0.00 69 1009.6
20260505164528 13 5 0.0 0.0 0.00 0.00 0.00 68 1009.5